Location: San Antonio de Areco
(34.2500°S, 59.4670°W)
Time: 08:06:18
(UTC-03:00)

ISS - Visible Passes

Search period start: 26 May 2017 00:00
Search period end: 05 June 2017 00:00
Orbit: 402 x 408 km, 51.6° (Epoch: 26 May)

Date Brightness Start Highest point End Pass type
(mag) Time Alt. Az. Time Alt. Az. Time Alt. Az.
27 May -0.8 07:19:27 10° N 07:22:01 21° NE 07:24:38 10° ESE visible
28 May -0.1 06:29:43 10° NE 06:30:10 10° NE 06:30:37 10° ENE visible
29 May -3.3 07:10:56 10° NW 07:14:11 64° NE 07:17:29 10° SE visible
30 May -1.7 06:19:20 10° NNW 06:22:12 28° NE 06:25:06 10° ESE visible
31 May -0.7 05:30:20 14° NE 05:30:20 14° NE 05:32:01 10° E visible
31 May -3.4 07:03:17 10° WNW 07:06:27 43° SW 07:09:39 10° SE visible
01 Jun -3.8 06:14:28 80° ESE 06:14:28 80° ESE 06:17:39 10° SE visible
02 Jun -2.2 06:58:09 18° SW 06:58:51 19° SSW 07:01:21 10° SSE visible
03 Jun -1.4 06:08:47 16° SSE 06:08:47 16° SSE 06:09:37 10° SSE visible
04 Jun -1.3 06:51:54 10° SSW 06:51:54 10° SSW 06:52:03 10° SSW visible
